Weather History for Zapata, TX

Change the Weather History Date:

Saturday, November 2, 2013

  Actual Average (KLRD) Record (KLRD)
Temperature  
Mean Temperature 64 °F 71 °F  
Max Temperature 79 °F 82 °F 96 °F (1942)
Min Temperature 47 °F 60 °F 33 °F (1912)
Degree Days  
Heating Degree Days 1 1  
Month to date heating degree days 2  
Since 1 July heating degree days 14  
Cooling Degree Days 0 7  
Month to date cooling degree days 14  
Year to date cooling degree days 4143  
Growing Degree Days 14 (Base 50)    
Moisture  
Dew Point 34 °F    
Average Humidity 33    
Maximum Humidity 64    
Minimum Humidity 13    
Precipitation  
Precipitation 0.00 in 0.05 in 1.50 in (1911)
Month to date precipitation 0.10  
Year to date precipitation 18.23  
Sea Level Pressure  
Sea Level Pressure 30.18 in    
Wind  
Wind Speed 8 mph (NNW)    
Max Wind Speed 17 mph    
Max Gust Speed 23 mph    
Visibility 10 miles    
Events      
T = Trace of Precipitation, MM = Missing Value Source: NWS Daily Summary

Daily Weather History Graph

Daily Weather History Graph

Search for Another Location

Airport:

Trip Planner

Search our weather history database for the weather conditions in past years. The results will help you decide how hot, cold, wet, or windy it might be!

Date:

Astronomy

Nov. 02, 2013 Rise Set
Actual Time 7:47 AM CDT 6:52 PM CDT
Civil Twilight 7:23 AM CDT 7:17 PM CDT
Nautical Twilight 6:56 AM CDT 7:44 PM CDT
Astronomical Twilight 6:28 AM CDT 8:11 PM CDT
Moon 6:50 AM CDT (11/2) 6:23 PM CDT (11/2)
Length of Visible Light 11h 53m
Length of Day
11h 05m
Waning Crescent, 1% of the Moon is Illuminated
Nov 2
Waning Crescent
Nov 3
New
Nov 9
First Quarter
Nov 17
Full
Nov 25
Last Quarter

Hourly Weather History & Observations

Time (CDT) Temp. Dew Point Humidity Pressure Visibility Wind Dir Wind Speed Gust Speed Precip Events Conditions
12:15 AM 73.6 °F 35.4 °F 25% 30.02 in 10.0 mi North 10.4 mph 17.3 mph N/A   Clear
12:35 AM 72.9 °F 34.3 °F 24% 30.03 in 10.0 mi North 11.5 mph 16.1 mph N/A   Clear
12:55 AM 72.5 °F 33.8 °F 24% 30.04 in 10.0 mi North 11.5 mph - N/A   Scattered Clouds
1:15 AM 71.2 °F 33.6 °F 25% 30.05 in 10.0 mi North 12.7 mph - N/A   Clear
1:35 AM 71.2 °F 34.2 °F 26% 30.05 in 10.0 mi North 10.4 mph 19.6 mph N/A   Scattered Clouds
1:55 AM 70.9 °F 33.3 °F 25% 30.06 in 10.0 mi North 9.2 mph 17.3 mph N/A   Mostly Cloudy
2:15 AM 70.7 °F 32.7 °F 25% 30.07 in 10.0 mi North 13.8 mph 19.6 mph N/A   Overcast
2:35 AM 70.2 °F 32.9 °F 25% 30.09 in 10.0 mi North 13.8 mph 21.9 mph N/A   Overcast
2:55 AM 69.3 °F 33.1 °F 26% 30.10 in 10.0 mi North 12.7 mph 23.0 mph N/A   Overcast
3:15 AM 68.9 °F 33.4 °F 27% 30.10 in 10.0 mi NNE 17.3 mph 23.0 mph N/A   Overcast
3:35 AM 68.5 °F 33.8 °F 28% 30.11 in 10.0 mi North 13.8 mph 21.9 mph N/A   Overcast
3:55 AM 67.6 °F 34.2 °F 29% 30.11 in 10.0 mi NNE 10.4 mph 17.3 mph N/A   Overcast
4:15 AM 67.1 °F 34.7 °F 30% 30.12 in 10.0 mi NNE 6.9 mph - N/A   Overcast
4:35 AM 66.4 °F 35.1 °F 31% 30.13 in 10.0 mi North 6.9 mph - N/A   Overcast
4:55 AM 64.6 °F 36.0 °F 35% 30.14 in 10.0 mi North 3.5 mph - N/A   Scattered Clouds
5:15 AM 62.8 °F 37.0 °F 38% 30.15 in 10.0 mi NW 4.6 mph - N/A   Scattered Clouds
5:35 AM 61.3 °F 38.1 °F 42% 30.16 in 10.0 mi NNW 5.8 mph - N/A   Clear
5:55 AM 59.5 °F 38.7 °F 46% 30.17 in 10.0 mi WNW 5.8 mph - N/A   Clear
6:15 AM 59.0 °F 39.4 °F 48% 30.17 in 10.0 mi NW 5.8 mph - N/A   Clear
6:35 AM 58.8 °F 39.7 °F 49% 30.18 in 10.0 mi NW 5.8 mph - N/A   Clear
6:55 AM 57.6 °F 40.1 °F 52% 30.20 in 10.0 mi NW 5.8 mph - N/A   Clear
7:15 AM 56.7 °F 40.3 °F 54% 30.21 in 10.0 mi WNW 5.8 mph - N/A   Clear
7:35 AM 56.8 °F 40.5 °F 54% 30.22 in 10.0 mi NW 6.9 mph - N/A   Clear
7:55 AM 57.2 °F 41.0 °F 55% 30.24 in 10.0 mi WNW 6.9 mph - N/A   Clear
8:15 AM 57.4 °F 42.3 °F 57% 30.25 in 10.0 mi NW 5.8 mph - N/A   Clear
8:35 AM 59.5 °F 42.4 °F 53% 30.26 in 10.0 mi NW 5.8 mph - N/A   Clear
8:55 AM 61.5 °F 42.4 °F 50% 30.27 in 10.0 mi NW 5.8 mph - N/A   Clear
9:15 AM 64.0 °F 41.9 °F 44% 30.28 in 10.0 mi NW 8.1 mph - N/A   Clear
9:35 AM 66.0 °F 41.0 °F 40% 30.28 in 10.0 mi NW 10.4 mph - N/A   Clear
9:55 AM 67.6 °F 40.5 °F 37% 30.29 in 10.0 mi NNW 9.2 mph - N/A   Clear
10:15 AM 68.2 °F 39.0 °F 34% 30.29 in 10.0 mi North 8.1 mph - N/A   Clear
10:35 AM 69.6 °F 38.5 °F 32% 30.30 in 10.0 mi NNE 6.9 mph - N/A   Clear
10:55 AM 70.7 °F 38.5 °F 31% 30.30 in 10.0 mi North 8.1 mph - N/A   Clear
12:15 PM 73.8 °F 33.6 °F 23% 30.28 in 10.0 mi NNE 3.5 mph - N/A   Clear
12:35 PM 74.8 °F 33.1 °F 22% 30.27 in 10.0 mi North 5.8 mph - N/A   Clear
12:55 PM 75.0 °F 32.7 °F 21% 30.27 in 10.0 mi NW 5.8 mph - N/A   Clear
1:15 PM 76.1 °F 31.6 °F 20% 30.26 in 10.0 mi North 6.9 mph - N/A   Clear
1:35 PM 77.2 °F 31.8 °F 19% 30.24 in 10.0 mi North 6.9 mph - N/A   Clear
1:55 PM 77.0 °F 29.3 °F 17% 30.23 in 10.0 mi North 9.2 mph - N/A   Clear
2:15 PM 77.9 °F 30.4 °F 18% 30.22 in 10.0 mi NNW 5.8 mph 16.1 mph N/A   Clear
2:35 PM 78.3 °F 28.9 °F 16% 30.20 in 10.0 mi North 10.4 mph - N/A   Clear
2:55 PM 78.3 °F 27.5 °F 15% 30.20 in 10.0 mi Calm Calm - N/A   Clear
3:15 PM 79.5 °F 26.4 °F 14% 30.19 in 10.0 mi North 5.8 mph 16.1 mph N/A   Clear
3:35 PM 79.7 °F 26.8 °F 14% 30.17 in 10.0 mi North 10.4 mph 16.1 mph N/A   Clear
3:55 PM 79.9 °F 26.8 °F 14% 30.17 in 10.0 mi North 3.5 mph - N/A   Clear
4:15 PM 79.5 °F 26.4 °F 14% 30.16 in 10.0 mi NNW 5.8 mph - N/A   Clear
4:35 PM 79.7 °F 27.9 °F 15% 30.16 in 10.0 mi North 6.9 mph 16.1 mph N/A   Clear
4:55 PM 79.5 °F 26.2 °F 14% 30.15 in 10.0 mi North 10.4 mph - N/A   Clear
5:15 PM 79.2 °F 24.6 °F 13% 30.15 in 10.0 mi North 6.9 mph - N/A   Clear
5:35 PM 78.8 °F 25.0 °F 14% 30.15 in 10.0 mi North 4.6 mph - N/A   Clear
5:55 PM 78.1 °F 25.5 °F 14% 30.15 in 10.0 mi NNE 6.9 mph - N/A   Clear
6:15 PM 77.2 °F 25.7 °F 15% 30.15 in 10.0 mi North 3.5 mph - N/A   Clear
6:35 PM 74.8 °F 27.0 °F 17% 30.16 in 10.0 mi NNW 3.5 mph - N/A   Clear
6:55 PM 72.0 °F 28.9 °F 20% 30.16 in 10.0 mi Calm Calm - N/A   Clear
7:15 PM 68.9 °F 30.4 °F 24% 30.17 in 10.0 mi NNW 3.5 mph - N/A   Clear
7:35 PM 67.3 °F 30.9 °F 26% 30.17 in 10.0 mi Calm Calm - N/A   Clear
7:55 PM 64.9 °F 31.8 °F 29% 30.18 in 10.0 mi NNW 3.5 mph - N/A   Clear
8:15 PM 62.1 °F 34.2 °F 35% 30.19 in 10.0 mi Calm Calm - N/A   Clear
8:35 PM 57.6 °F 37.0 °F 46% 30.20 in 10.0 mi Calm Calm - N/A   Clear
8:55 PM 57.0 °F 35.1 °F 44% 30.20 in 10.0 mi Calm Calm - N/A   Clear
9:15 PM 54.9 °F 35.6 °F 48% 30.21 in 10.0 mi Calm Calm - N/A   Clear
9:35 PM 52.7 °F 37.2 °F 56% 30.21 in 10.0 mi Calm Calm - N/A   Clear
9:55 PM 52.0 °F 35.8 °F 54% 30.22 in 10.0 mi Calm Calm - N/A   Clear
10:15 PM 51.4 °F 37.8 °F 60% 30.22 in 10.0 mi Calm Calm - N/A   Clear
10:35 PM 50.4 °F 37.6 °F 62% 30.22 in 10.0 mi Calm Calm - N/A   Clear
10:55 PM 54.1 °F 34.5 °F 48% 30.23 in 10.0 mi Calm Calm - N/A   Clear
11:15 PM 49.8 °F 35.8 °F 59% 30.23 in 10.0 mi Calm Calm - N/A   Clear
11:35 PM 50.0 °F 35.4 °F 57% 30.22 in 10.0 mi Calm Calm - N/A   Clear
11:55 PM 47.3 °F 35.8 °F 64% 30.22 in 10.0 mi Calm Calm - N/A   Clear